Location: Alpha Ridge Park
(39.3209°N, 76.9128°W)
Time: 00:02:14
(UTC-04:00)

Vanguard 2 Rocket - Pass Details

Date: 26 May 2019
Orbit: 554 x 3326 km, 32.9° (Epoch: 19 June)

Event Time Altitude Azimuth Distance (km) Brightness Sun altitude
Rises 04:27:47 0° 219° (SW) 7,166 - -13.2°
Reaches altitude 10° 04:32:59 10° 212° (SSW) 6,253 - -12.4°
Exits shadow 04:33:24 11° 212° (SSW) 6,182 10.5 -12.4°
Maximum altitude 04:50:53 41° 151° (SSE) 3,955 10.0 -9.8°
Drops below altitude 10° 05:04:56 10° 89° (E) 5,002 11.6 -7.6°
Sets 05:08:29 0° 82° (E) 5,675 12.3 -7.0°
